Date,TemperatureHighF,TemperatureAvgF,TemperatureLowF,DewpointHighF,DewpointAvgF,DewpointLowF,HumidityHigh,HumidityAvg,HumidityLow,PressureMaxIn,PressureMinIn,WindSpeedMaxMPH,WindSpeedAvgMPH,GustSpeedMaxMPH,PrecipitationSumIn
2013-1-10,51.8,42.2,35.8,14.5,11.3,8.7,37,28,21,29.64,29.54,8,2,8,0.00
2013-1-11,40.8,34.3,23.2,22.5,0.3,-10.5,58,23,19,29.64,29.41,24,8,24,0.00
2013-1-12,23.2,23.2,23.2,-9.9,-9.9,-9.9,22,22,22,29.64,29.64,0,0,2,0.00
2013-1-14,31.1,23.4,14.4,11.3,6.6,-14.1,55,49,26,29.77,29.61,4,2,6,0.00
2013-1-15,30.2,22.9,7.0,3.9,-6.7,-11.3,62,27,20,29.99,29.77,14,5,14,0.00
2013-1-16,46.8,25.8,8.1,12.8,1.8,-6.2,58,37,20,30.08,29.98,9,2,9,0.00
2013-1-17,58.1,39.0,18.9,18.4,11.5,6.1,61,36,19,30.17,30.04,5,2,5,0.00
2013-1-18,57.6,32.1,18.9,20.6,14.3,9.9,73,52,21,30.07,29.95,6,2,6,0.00
2013-1-19,61.9,38.0,18.9,22.1,15.0,9.4,71,44,17,30.03,29.93,6,1,6,0.00
2013-1-21,66.6,63.3,60.8,17.1,16.2,15.7,17,16,14,29.89,29.89,5,2,6,0.00
2013-1-22,67.8,39.8,21.6,18.7,14.5,10.2,65,41,14,30.00,29.90,6,1,6,0.00
2013-1-23,70.7,44.5,22.5,18.2,10.7,2.0,58,28,12,30.05,29.94,12,2,12,0.00
2013-1-24,68.9,44.4,24.1,32.0,11.8,2.8,48,29,13,29.99,29.85,9,2,9,0.00
2013-1-27,64.9,55.9,44.1,43.6,39.2,33.4,83,56,33,29.71,29.64,14,6,14,0.01
2013-1-29,45.0,35.2,29.5,27.9,7.4,-1.2,56,32,20,29.64,29.49,24,10,24,0.00
2013-1-30,37.4,34.7,26.6,11.5,9.4,7.4,50,35,29,29.88,29.64,8,4,8,0.00
2013-1-31,53.1,28.7,19.8,22.8,15.3,11.7,74,59,25,29.99,29.87,11,1,11,0.00
2013-2-1,66.6,35.5,20.8,26.2,18.1,14.2,77,55,16,29.98,29.86,9,1,9,0.15
2013-2-4,63.3,60.4,57.0,25.9,22.6,19.8,30,23,19,29.79,29.73,10,3,10,0.00
2013-2-5,66.9,44.8,27.7,24.7,18.0,12.0,67,38,14,29.82,29.71,7,2,7,0.00
2013-2-6,67.3,59.5,30.2,24.9,20.2,15.4,56,22,17,29.72,29.60,16,5,16,0.00
2013-2-12,47.5,38.9,28.4,16.4,6.6,0.4,43,27,19,29.85,29.76,14,5,14,0.00
2013-2-13,28.0,25.4,23.5,6.6,6.0,4.9,46,43,39,29.85,29.84,2,0,2,0.00
2013-2-14,56.3,42.6,24.3,21.2,14.9,11.3,61,35,19,29.84,29.77,21,4,21,0.00
2013-2-15,55.4,35.0,24.1,23.2,18.1,11.7,68,53,18,30.00,29.89,21,3,21,0.00
2013-2-20,56.5,45.0,34.2,31.8,24.2,11.0,73,49,18,29.39,29.29,22,7,22,0.00
2013-2-21,50.4,38.0,29.3,29.0,24.8,16.5,96,63,27,29.55,29.32,17,5,17,0.09
2013-2-22,52.0,46.0,42.1,25.1,20.5,8.4,48,37,21,29.69,29.61,14,7,14,0.00
2013-2-25,55.0,34.5,26.4,23.1,13.0,10.4,78,44,18,29.75,29.65,12,5,14,0.00
2013-7-1,97.3,87.5,79.3,55.0,52.1,40.2,38,30,14,29.93,29.81,19,8,19,0.02
2013-7-2,66.9,66.5,66.2,49.7,49.4,49.1,55,54,54,29.97,29.96,2,1,2,0.00
2013-7-3,97.2,90.0,79.5,54.2,50.0,44.0,36,26,22,29.76,29.67,17,6,17,0.09
2013-7-4,79.5,79.5,79.5,50.3,50.3,50.3,36,36,36,29.73,29.73,16,16,16,0.00
2013-7-5,102.7,92.5,69.1,65.3,54.6,44.1,83,30,14,29.77,29.63,15,5,15,0.54
2013-7-10,102.9,92.3,78.8,61.0,54.7,44.4,47,30,14,29.92,29.76,14,5,14,0.00
2013-7-11,95.2,80.7,70.3,65.4,59.8,53.2,73,52,26,29.95,29.74,12,5,12,0.00
2013-7-12,87.4,79.9,72.3,59.9,59.3,58.8,65,52,38,29.80,29.75,7,4,7,0.00
2013-7-29,82.2,82.1,81.9,61.4,61.3,61.1,50,50,49,29.86,29.86,1,0,6,0.12
2013-8-22,100.2,82.7,64.9,56.4,51.0,39.2,70,37,14,29.93,29.76,10,3,10,0.00
2013-8-23,94.3,78.4,60.3,53.5,48.0,41.9,57,36,21,29.90,29.76,17,4,17,0.00
2013-8-24,92.7,78.3,67.5,66.0,57.0,50.5,85,51,25,29.92,29.80,14,3,14,0.12
2013-8-25,92.7,76.7,65.7,65.5,62.0,56.8,95,64,33,29.98,29.88,14,3,14,0.08
2013-8-26,96.4,79.2,64.0,62.9,58.4,52.7,88,54,27,29.99,29.84,10,3,10,0.00
2013-8-27,96.6,80.3,63.5,58.5,53.8,47.4,73,43,23,29.93,29.78,10,3,10,0.00
2013-8-28,96.4,76.0,62.1,59.3,53.1,49.7,70,48,23,29.92,29.80,14,2,14,0.00